Tracking 27107 objects as of 20-Mar-2023
HD Live streaming from Space Station
objects crossing your sky now

TIROS 6

Track TIROS 6 now!
10-day predictions
TIROS 6 is classified as:


NORAD ID: 397
Int'l Code: 1962-047A
Perigee: 601.0 km
Apogee: 610.9 km
Inclination: 58.3 °
Period: 96.7 minutes
Semi major axis: 6976 km
RCS: 0.807 m2 (medium)
Launch date: September 18, 1962
Source: United States (US)
Launch site: AIR FORCE EASTERN TEST RANGE (AFETR)
Your satellite tracking list
Your tracking list is empty




NASA's NSSDC Master Catalog

Two Line Element Set (TLE):
1 00397U 62047A   23078.65217608  .00001860  00000-0  21529-3 0  9990
2 00397  58.3049 140.5229 0007109  13.7411 346.3826 14.89732141235289
Source of the keplerian elements: AFSPC